Location: Carson
(33.8314°N, 118.2820°W)
Time: 12:51:22
(UTC+00:00)

Cosmos 2151 - Pass Details

Date: 23 November 2020
Orbit: 582 x 600 km, 82.5° (Epoch: 22 January)

Event Time Altitude Azimuth Distance (km) Brightness Sun altitude
Rises 12:35:04 0° 181° (S) 2,792 6.5 -24.3°
Reaches altitude 10° 12:37:15 10° 180° (S) 1,895 5.6 -23.8°
Maximum altitude 12:41:26 76° 95° (E) 605 3.0 -23.0°
Drops below altitude 10° 12:45:37 10° 10° (N) 1,904 5.5 -22.1°
Sets 12:47:49 0° 9° (N) 2,807 6.4 -21.7°
